EW4389 Weather Reports


Display with metric or nautical units.
time (UTC)temp
F
wind
direction
speed
MPH
gust
MPH
rain 1hr
in
rain 24hr
in
rain mn
in
humidity
%
barometer
mb
20260510100021 45 358 3.0 7.0 0.00 0.15 0.00 70 1007.2
20260510094519 46 358 5.0 11.0 0.00 0.15 0.00 69 1006.5
20260510093016 47 11 7.0 13.0 0.00 0.15 0.00 64 1006.3
20260510091514 48 339 6.0 10.0 0.00 0.15 0.00 60 1006.1
20260510090014 49 339 9.0 14.0 0.00 0.15 0.00 56 1006.2
20260510084505 50 344 6.0 17.0 0.00 0.15 0.00 50 1005.6
20260510083003 51 295 5.0 9.0 0.00 0.15 0.00 49 1005.5
20260510081505 51 283 2.0 6.0 0.00 0.15 0.00 50 1005.3
20260510080104 51 283 3.0 6.0 0.00 0.15 0.00 50 1005.1
20260510074558 51 282 3.0 9.0 0.00 0.15 0.00 50 1005.0
20260510073104 51 276 4.0 10.0 0.00 0.15 0.00 50 1004.9
20260510071558 51 271 3.0 12.0 0.00 0.15 0.00 50 1004.8
20260510070054 51 279 3.0 6.0 0.00 0.15 0.00 50 1004.7
20260510064557 50 281 5.0 9.0 0.00 0.15 0.00 50 1004.5
20260510063050 50 238 5.0 12.0 0.00 0.15 0.00 50 1004.0
20260510061549 50 275 4.0 10.0 0.00 0.15 0.00 50 1004.5
20260510060050 49 273 5.0 10.0 0.00 0.15 0.00 52 1004.2
20260510054544 50 257 3.0 9.0 0.00 0.15 0.00 52 1004.1
20260510053146 50 271 3.0 9.0 0.00 0.15 0.00 52 1003.9
20260510051548 50 260 3.0 9.0 0.00 0.15 0.00 53 1004.1
20260510050041 50 247 4.0 10.0 0.00 0.15 0.00 52 1003.8
20260510044554 50 272 4.0 11.0 0.00 0.15 0.00 52 1004.1
20260510043047 50 254 8.0 16.0 0.00 0.15 0.00 52 1004.0
20260510041536 50 259 6.0 11.0 0.00 0.15 0.00 53 1004.0
20260510040041 50 233 6.0 16.0 0.00 0.15 0.15 53 1003.9
20260510034534 50 246 7.0 16.0 0.00 0.15 0.15 52 1003.7
20260510033047 50 256 10.0 16.0 0.00 0.15 0.15 51 1003.6
20260510031536 50 279 7.0 16.0 0.00 0.15 0.15 50 1003.4
20260510030041 50 233 6.0 12.0 0.00 0.15 0.15 50 1003.5
20260510024529 50 251 5.0 10.0 0.02 0.15 0.15 49 1003.6
20260510023028 50 244 3.0 9.0 0.05 0.15 0.15 49 1003.4
20260510021528 51 226 3.0 7.0 0.08 0.15 0.15 49 1003.2
20260510020029 51 223 6.0 14.0 0.10 0.15 0.15 49 1002.7
20260510014534 51 244 9.0 14.0 0.08 0.13 0.13 50 1003.8
20260510013025 51 300 5.0 12.0 0.07 0.10 0.10 52 1003.7
20260510011525 51 288 5.0 14.0 0.07 0.07 0.07 53 1003.7
20260510010027 51 288 5.0 18.0 0.05 0.05 0.05 56 1003.5
20260510004524 51 317 8.0 19.0 0.05 0.05 0.05 63 1003.2
20260510003024 56 284 20.0 44.0 0.03 0.03 0.03 72 1002.6
20260510001522 60 233 6.0 12.0 0.00 0.00 0.00 67 1001.1
20260510000021 60 250 5.0 11.0 0.00 0.00 0.00 66 1001.1
20260509234530 60 240 2.0 11.0 0.00 0.00 0.00 65 1000.7
20260509233021 61 231 4.0 12.0 0.00 0.00 0.00 64 1000.5
20260509231521 61 250 4.0 11.0 0.00 0.00 0.00 64 1000.5
20260509230022 61 252 4.0 11.0 0.00 0.00 0.00 64 1000.6
20260509224518 61 256 6.0 15.0 0.00 0.00 0.00 63 1000.7
20260509223017 62 257 6.0 14.0 0.00 0.00 0.00 63 1000.7
20260509221518 62 217 7.0 16.0 0.00 0.00 0.00 62 1000.7
20260509220016 63 257 8.0 17.0 0.00 0.00 0.00 62 1000.6
20260509214515 63 253 9.0 16.0 0.00 0.00 0.00 62 1000.7
20260509213014 62 251 7.0 19.0 0.00 0.00 0.00 62 1000.8
20260509211513 62 220 9.0 18.0 0.00 0.00 0.00 61 1000.8
20260509210018 62 219 13.0 18.0 0.00 0.00 0.00 63 1000.9
20260509204510 62 248 7.0 22.0 0.00 0.00 0.00 66 1001.1
20260509203009 63 221 11.0 21.0 0.00 0.00 0.00 63 1001.3
20260509201507 63 260 6.0 17.0 0.00 0.00 0.00 65 1001.3
20260509200006 62 264 10.0 23.0 0.00 0.00 0.00 65 1001.6
20260509194505 63 249 8.0 18.0 0.00 0.00 0.00 63 1001.7
20260509193004 62 236 9.0 21.0 0.00 0.00 0.00 65 1001.7
20260509191502 61 216 4.0 17.0 0.00 0.00 0.00 67 1001.9
20260509190105 61 260 7.0 16.0 0.00 0.00 0.00 66 1002.2
20260509184608 62 241 4.0 12.0 0.00 0.00 0.00 67 1002.3
20260509183154 61 262 7.0 16.0 0.00 0.00 0.00 67 1002.5
20260509181553 60 260 7.0 16.0 0.00 0.00 0.00 67 1002.7
20260509180048 59 282 10.0 18.0 0.00 0.00 0.00 66 1003.0
20260509174547 59 267 7.0 13.0 0.00 0.00 0.00 66 1003.0
20260509173055 58 241 7.0 14.0 0.00 0.00 0.00 65 1003.1
20260509171600 57 242 8.0 13.0 0.00 0.00 0.00 65 1003.1
20260509170042 56 262 7.0 13.0 0.00 0.00 0.00 64 1003.2
20260509164539 55 256 3.0 11.0 0.00 0.00 0.00 62 1003.3
20260509163038 55 281 7.0 13.0 0.00 0.00 0.00 64 1003.4
20260509161537 55 236 6.0 13.0 0.00 0.00 0.00 58 1003.6
20260509160036 54 256 7.0 11.0 0.00 0.00 0.00 63 1003.8
20260509154536 55 227 5.0 11.0 0.00 0.00 0.00 63 1003.8
20260509153036 54 258 6.0 14.0 0.00 0.00 0.00 63 1003.9
20260509151532 54 277 4.0 10.0 0.00 0.00 0.00 61 1003.9
20260509150033 54 242 3.0 9.0 0.00 0.00 0.00 62 1004.0
20260509144544 54 244 7.0 13.0 0.00 0.00 0.00 59 1004.0
20260509143027 53 237 5.0 14.0 0.00 0.00 0.00 60 1004.1
20260509141532 53 223 6.0 14.0 0.00 0.00 0.00 59 1004.1
20260509140022 53 219 9.0 13.0 0.00 0.02 0.00 59 1004.2
20260509134519 52 236 6.0 11.0 0.00 0.02 0.00 55 1004.4
20260509133020 51 248 3.0 12.0 0.00 0.02 0.00 59 1004.5
20260509131521 52 248 7.0 14.0 0.00 0.02 0.00 60 1004.7
20260509130015 52 244 7.0 17.0 0.00 0.06 0.00 58 1004.8
20260509124513 52 250 5.0 17.0 0.00 0.06 0.00 58 1004.9
20260509123008 51 252 5.0 9.0 0.00 0.06 0.00 56 1005.0
20260509121514 50 242 2.0 8.0 0.00 0.06 0.00 56 1004.9
20260509120003 50 225 3.0 8.0 0.00 0.08 0.00 54 1005.0
20260509114606 49 211 2.0 11.0 0.00 0.08 0.00 53 1005.0
20260509113056 48 236 5.0 11.0 0.00 0.08 0.00 53 1005.1
20260509111553 48 238 3.0 9.0 0.00 0.08 0.00 55 1005.3
20260509110052 47 243 2.0 7.0 0.00 0.08 0.00 56 1005.2
20260509104548 47 236 1.0 4.0 0.00 0.09 0.00 58 1005.3
20260509103047 46 237 0.0 7.0 0.00 0.09 0.00 59 1005.1
20260509101546 46 236 1.0 7.0 0.00 0.09 0.00 61 1005.0